Location: Elmsmere
(40.9284°N, 73.8207°W)
Time: 05:37:10
(UTC+00:00)

CSL-04 Rocket - Pass Details

Date: 29 October 2020
Orbit: 805 x 861 km, 98.9° (Epoch: 29 November)

Event Time Altitude Azimuth Distance (km) Brightness Sun altitude
Exits shadow 23:39:11 10° 152° (SSE) 2,488 5.9 -20.3°
Maximum altitude 23:44:38 63° 72° (ENE) 955 3.6 -21.4°
Drops below altitude 10° 23:50:04 10° 353° (N) 2,483 6.2 -22.4°
Sets 23:52:27 0° 350° (N) 3,415 7.0 -22.8°
